[[{"header":{"parameterUnit":"m.s-1","parameterCategory":1,"la1":30.2991,"la2":30.254,"lo1":-89.0895,"lo2":-89.0444,"dy":0.0017,"dx":0.0017,"nx":28,"ny":28,"refTime":"2024-02-10T03:00:00:Z","depth":0,"parameterNumber":2,"parameterNumberName":"U-component_of_WINDS"},"data":[0,0,0,0,0,0,0,0,0,0,0,0,0,0,0,0,0,0,0,0,0,0,0,0,0,0,0,0,0,0,0,0,0,0,0,0,0,0,0,0,0,0,0,0,0,0,0,0,0,0,0,0,0,0,0,0,0,0,-0.8273,-0.8273,0,-0.8244,-0.8243,-0.8243,-0.8233,-0.8233,-0.8233,-0.8233,-0.8203,-0.8202,-0.8201,0,0,0,0,0,0,0,0,0,0,0,0,0,-0.8322,-0.8321,-0.8274,-0.8273,-0.8273,-0.8244,-0.8243,-0.8243,-0.8233,-0.8233,-0.8233,-0.8233,-0.8203,-0.8202,-0.8201,0,0,0,0,0,0,0,0,0,0,0,0,0,-0.8298,-0.8321,-0.8274,-0.8264,-0.8263,-0.8244,-0.8243,-0.8243,-0.8233,-0.8233,-0.8233,-0.8233,-0.8204,-0.8202,-0.8201,-0.8188,0,0,-0.8197,-0.8196,0,0,0,0,0,0,0,0,-0.8299,-0.8296,-0.8266,-0.8265,-0.8264,-0.8242,-0.8249,-0.8225,-0.8233,-0.8244,-0.8233,-0.8234,-0.8216,-0.8213,-0.8207,-0.8187,-0.8186,-0.8196,-0.8196,-0.8195,-0.8195,0,0,0,0,0,0,0,-0.8301,-0.8297,-0.8262,-0.8266,-0.8264,-0.8262,-0.8258,-0.8244,-0.8229,-0.8243,-0.8243,-0.8239,-0.8215,-0.8209,-0.8207,-0.8185,-0.8196,-0.8195,-0.8194,-0.8194,-0.8153,-0.8153,0,0,0,0,0,0,-0.8304,-0.8299,-0.8263,-0.8261,-0.8282,-0.8261,-0.8257,-0.8249,-0.823,-0.8227,-0.8239,-0.8239,-0.8211,-0.8208,-0.8206,-0.8189,-0.8195,-0.8194,-0.8193,-0.8153,-0.8153,-0.8153,0,0,0,0,0,0,-0.8305,-0.8301,-0.8264,-0.8279,-0.8275,-0.826,-0.8251,-0.8248,-0.8242,-0.8226,-0.8224,-0.8235,-0.8211,-0.8207,-0.8193,-0.8188,-0.8193,-0.8192,-0.8154,-0.8153,-0.8153,-0.8157,0,0,0,0,0,0,-0.8306,-0.8301,-0.8296,-0.8279,-0.8274,-0.8251,-0.825,-0.8247,-0.8239,-0.8239,-0.8222,-0.8219,-0.8211,-0.8195,-0.8191,-0.8186,-0.8191,-0.8154,-0.8153,-0.8153,-0.8157,-0.8157,-0.8157,0,0,0,0,0,-0.8308,-0.8299,-0.8296,-0.8292,-0.8267,-0.8251,-0.8248,-0.8238,-0.8239,-0.8234,-0.8224,-0.822,-0.8189,-0.8193,-0.8189,-0.8184,-0.8154,-0.8154,-0.8153,-0.8158,-0.8157,-0.8157,0,0,0,0,0,0,-0.8316,-0.8297,-0.8293,-0.8278,-0.8266,-0.825,-0.8243,-0.8238,-0.8226,-0.8226,-0.8215,-0.8211,-0.8197,-0.8189,-0.8194,-0.8171,-0.8172,-0.817,-0.8176,-0.8176,-0.8176,-0.8178,-0.819,0,0,0,0,0,-0.8316,-0.8304,-0.8288,-0.8276,-0.8271,-0.8258,-0.825,-0.8244,-0.8231,-0.8226,-0.8215,-0.8203,-0.8191,-0.8183,-0.8171,-0.8157,-0.8153,-0.8151,-0.8151,-0.815,-0.8149,-0.814,-0.8139,-0.8151,-0.8151,-0.8151,0,0,-0.8316,-0.8304,-0.8297,-0.8278,-0.8268,-0.8256,-0.8254,-0.8241,-0.8233,-0.8225,-0.821,-0.8201,-0.8187,-0.8172,-0.8165,-0.8165,-0.8145,-0.815,-0.815,-0.8148,-0.814,-0.8139,-0.8138,-0.815,-0.8151,-0.8151,0,0,-0.8309,-0.8299,-0.8288,-0.8278,-0.8263,-0.8254,-0.8252,-0.8236,-0.823,-0.8215,-0.8208,-0.8198,-0.8177,-0.8167,-0.8159,-0.8149,-0.8145,-0.8145,-0.8143,-0.8135,-0.8134,-0.8133,-0.8129,-0.8128,-0.8144,-0.8144,-0.8144,0,-0.831,-0.8292,-0.8283,-0.827,-0.8262,-0.8254,-0.8243,-0.8234,-0.8216,-0.821,-0.8211,-0.8184,-0.8174,-0.8157,-0.8154,-0.8148,-0.8145,-0.8147,-0.8135,-0.8134,-0.8133,-0.8129,-0.8128,-0.8145,-0.8144,-0.8144,-0.8144,0,-0.8295,-0.8282,-0.8275,-0.8258,-0.8248,-0.8237,-0.8225,-0.8217,-0.8212,-0.8203,-0.8188,-0.8176,-0.8161,-0.8157,-0.8151,-0.8139,-0.8139,-0.8137,-0.8138,-0.8133,-0.8128,-0.8127,-0.8145,-0.8145,-0.8145,-0.8145,0,0,-0.8292,-0.8269,-0.8266,-0.8258,-0.8241,-0.8231,-0.8219,-0.8205,-0.8198,-0.8186,-0.8175,-0.8158,-0.8156,-0.8148,-0.8141,-0.8134,-0.8126,-0.8133,-0.8133,-0.8132,-0.8111,-0.8112,-0.811,-0.8124,-0.8123,-0.8123,-0.8112,0,-0.8282,-0.826,-0.8251,-0.8233,-0.8222,-0.8214,-0.8204,-0.8192,-0.8184,-0.8173,-0.8165,-0.8152,-0.8151,-0.8146,-0.8139,-0.8129,-0.8122,-0.813,-0.8114,-0.8113,-0.8117,-0.8108,-0.8109,-0.8099,-0.811,-0.811,-0.811,0,-0.8268,-0.8256,-0.8237,-0.8221,-0.8216,-0.8206,-0.8192,-0.8182,-0.8169,-0.8163,-0.8153,-0.8147,-0.8135,-0.8137,-0.8119,-0.8124,-0.8117,-0.8112,-0.8111,-0.8109,-0.8111,-0.8105,-0.8095,-0.8094,-0.8107,-0.8108,-0.8108,0,-0.8267,-0.8246,-0.8231,-0.8225,-0.8206,-0.82,-0.8192,-0.8179,-0.817,-0.8158,-0.8153,-0.8139,-0.8132,-0.8121,-0.8112,-0.8114,-0.8095,-0.8096,-0.809,-0.809,-0.8085,-0.8086,-0.8074,-0.8082,-0.8082,-0.8082,-0.8082,0,-0.8257,-0.8246,-0.823,-0.8222,-0.8209,-0.8198,-0.8186,-0.8177,-0.8166,-0.8155,-0.8149,-0.8139,-0.8127,-0.8116,-0.8109,-0.8095,-0.8092,-0.8087,-0.8085,-0.8087,-0.8088,-0.8082,-0.8082,-0.8082,-0.8082,-0.8082,-0.8082,0,-0.8253,-0.8243,-0.8227,-0.821,-0.8206,-0.8197,-0.8183,-0.8174,-0.8166,-0.8153,-0.8149,-0.8136,-0.8123,-0.8112,-0.8095,-0.809,-0.8075,-0.8074,-0.8079,-0.8078,-0.8072,-0.8073,-0.8056,-0.8053,-0.8064,-0.8064,-0.8064,0,-0.8247,-0.8238,-0.8221,-0.8213,-0.8205,-0.8193,-0.8184,-0.8174,-0.8166,-0.815,-0.8143,-0.8129,-0.8117,-0.8096,-0.8085,-0.8072,-0.8069,-0.8064,-0.8067,-0.807,-0.8068,-0.8069,-0.8068,-0.8064,-0.8064,-0.8064,-0.8064,0,-0.8238,-0.8233,-0.8221,-0.8206,-0.8196,-0.8185,-0.8173,-0.8167,-0.8155,-0.8146,-0.8132,-0.8123,-0.8105,-0.8091,-0.8077,-0.8068,-0.8064,-0.8063,-0.8061,-0.8062,-0.8066,-0.8063,-0.8078,-0.8063,-0.8063,-0.8063,-0.8063,-0.8063,-0.8232,-0.8224,-0.821,-0.8196,-0.8187,-0.8176,-0.8167,-0.8157,-0.8145,-0.813,-0.8125,-0.811,-0.8097,-0.8077,-0.8069,-0.8058,-0.8058,-0.8054,-0.8054,-0.8053,-0.8053,-0.8068,-0.8055,-0.8055,-0.8055,-0.8055,-0.8055,0,-0.8222,-0.8212,-0.82,-0.8184,-0.8173,-0.817,-0.8157,-0.8148,-0.8135,-0.8124,-0.8112,-0.8096,-0.8083,-0.8071,-0.8057,-0.805,-0.8048,-0.8047,-0.8047,-0.8045,-0.8054,-0.8057,-0.8049,-0.8049,-0.8049,-0.8049,-0.8049,-0.8049,-0.8215,-0.82,-0.8193,-0.8174,-0.8165,-0.815,-0.8143,-0.8133,-0.8123,-0.8106,-0.8094,-0.8087,-0.8075,-0.806,-0.8047,-0.8044,-0.8039,-0.8039,-0.8035,-0.8043,-0.8044,-0.8045,-0.8048,-0.8038,-0.8038,-0.8027,-0.8027,-0.8027]},{"header":{"parameterUnit":"m.s-1","parameterCategory":1,"la1":30.2991,"la2":30.254,"lo1":-89.0895,"lo2":-89.0444,"dy":0.0017,"dx":0.0017,"nx":28,"ny":28,"refTime":"2024-02-10T03:00:00:Z","depth":0,"parameterNumber":3,"parameterNumberName":"V-component_of_WINDS"},"data":[0,0,0,0,0,0,0,0,0,0,0,0,0,0,0,0,0,0,0,0,0,0,0,0,0,0,0,0,0,0,0,0,0,0,0,0,0,0,0,0,0,0,0,0,0,0,0,0,0,0,0,0,0,0,0,0,0,0,1.2079,1.208,0,1.2219,1.222,1.2222,1.228,1.228,1.228,1.2279,1.2428,1.2432,1.2436,0,0,0,0,0,0,0,0,0,0,0,0,0,1.1867,1.187,1.2078,1.208,1.2082,1.2218,1.222,1.2222,1.228,1.228,1.228,1.2279,1.2427,1.2432,1.2437,0,0,0,0,0,0,0,0,0,0,0,0,0,1.1978,1.1871,1.2078,1.2127,1.2133,1.2218,1.2221,1.2223,1.228,1.228,1.2279,1.2279,1.2425,1.2431,1.2437,1.2486,0,0,1.2457,1.246,0,0,0,0,0,0,0,0,1.1972,1.1986,1.2118,1.2124,1.2131,1.2231,1.22,1.2311,1.228,1.2225,1.2279,1.2279,1.2363,1.2375,1.2402,1.2493,1.2499,1.2457,1.2461,1.2464,1.2466,0,0,0,0,0,0,0,1.1964,1.198,1.2134,1.212,1.2128,1.2144,1.2159,1.2222,1.2295,1.2229,1.2234,1.2249,1.2367,1.2396,1.2406,1.2501,1.2457,1.2463,1.2467,1.2469,1.2641,1.2641,0,0,0,0,0,0,1.1947,1.1973,1.213,1.2138,1.2048,1.2148,1.2165,1.22,1.2294,1.2308,1.225,1.2252,1.2385,1.2399,1.2412,1.2476,1.2464,1.247,1.2474,1.264,1.2641,1.2642,0,0,0,0,0,0,1.1942,1.1961,1.2124,1.2057,1.2079,1.2152,1.219,1.2203,1.2232,1.231,1.2324,1.2266,1.2385,1.2403,1.2467,1.2482,1.2473,1.2479,1.2639,1.264,1.2641,1.2604,0,0,0,0,0,0,1.1936,1.1958,1.1976,1.2057,1.2082,1.2175,1.2191,1.2206,1.2242,1.2246,1.2328,1.2342,1.2386,1.2457,1.2473,1.249,1.2484,1.2638,1.264,1.2641,1.2604,1.2603,1.2603,0,0,0,0,0,1.1928,1.1961,1.1977,1.1995,1.2106,1.2176,1.2191,1.224,1.2243,1.2263,1.2313,1.2339,1.2477,1.2463,1.2482,1.2501,1.2638,1.2639,1.2641,1.2604,1.2603,1.2603,0,0,0,0,0,0,1.1882,1.1972,1.1991,1.205,1.2105,1.2186,1.2212,1.2237,1.2294,1.2295,1.2355,1.2374,1.2433,1.2474,1.2457,1.2554,1.256,1.2565,1.2525,1.2525,1.2525,1.2514,1.2489,0,0,0,0,0,1.1878,1.1925,1.2003,1.2048,1.2074,1.2138,1.217,1.2203,1.2263,1.2287,1.2342,1.24,1.2457,1.2493,1.255,1.261,1.263,1.2632,1.2632,1.2631,1.2635,1.2672,1.2674,1.2647,1.2647,1.2647,0,0,1.1872,1.1927,1.1954,1.204,1.2086,1.2136,1.2157,1.2209,1.2247,1.2296,1.2359,1.2402,1.2471,1.2534,1.2564,1.2569,1.2647,1.2633,1.2631,1.2637,1.2674,1.2676,1.2679,1.2648,1.2648,1.2648,0,0,1.1885,1.1931,1.1974,1.202,1.2089,1.2131,1.2141,1.2218,1.2248,1.2313,1.235,1.2398,1.2494,1.2542,1.2579,1.2611,1.2639,1.2628,1.2626,1.2661,1.2663,1.2665,1.2678,1.2682,1.2632,1.2632,1.2632,0,1.1869,1.1944,1.1993,1.2043,1.2081,1.2125,1.2171,1.2213,1.2298,1.2324,1.2327,1.2449,1.2499,1.2575,1.2582,1.261,1.2626,1.262,1.2658,1.2661,1.2664,1.2677,1.2682,1.263,1.2631,1.2631,1.2631,0,1.1921,1.1973,1.2,1.2078,1.2119,1.2166,1.2225,1.2261,1.229,1.2333,1.2399,1.246,1.253,1.255,1.258,1.2631,1.2632,1.2646,1.2653,1.2664,1.2678,1.2683,1.2628,1.2629,1.2629,1.263,0,0,1.191,1.2016,1.2025,1.2062,1.2141,1.2183,1.2233,1.23,1.233,1.2387,1.2432,1.2512,1.2526,1.2568,1.2604,1.2635,1.2659,1.2646,1.2648,1.2647,1.272,1.271,1.2715,1.2676,1.2677,1.2678,1.2715,0,1.1936,1.2025,1.2072,1.2143,1.2192,1.2235,1.2279,1.2334,1.2375,1.2424,1.247,1.2527,1.254,1.2566,1.2598,1.2649,1.2674,1.2647,1.2721,1.2723,1.2704,1.2722,1.2711,1.2742,1.272,1.2721,1.2722,0,1.1978,1.2033,1.2108,1.2183,1.2205,1.2243,1.2309,1.2355,1.2419,1.2447,1.2493,1.2529,1.2585,1.2587,1.2667,1.2647,1.2681,1.271,1.2713,1.2723,1.2724,1.2734,1.2753,1.2758,1.273,1.273,1.2729,0,1.1964,1.2057,1.2114,1.2144,1.2233,1.2259,1.2297,1.236,1.2398,1.2456,1.2481,1.2546,1.2581,1.2631,1.2684,1.268,1.276,1.2765,1.2786,1.2785,1.2802,1.2801,1.2829,1.2821,1.2821,1.2821,1.2821,0,1.1989,1.2033,1.2109,1.2145,1.2197,1.225,1.2301,1.2343,1.2399,1.2445,1.2486,1.2529,1.2595,1.2646,1.2688,1.2749,1.2764,1.279,1.2801,1.2787,1.2784,1.2811,1.2811,1.2822,1.2822,1.2821,1.2821,0,1.1983,1.2035,1.21,1.2178,1.2199,1.2234,1.2302,1.2339,1.2382,1.244,1.2456,1.2525,1.2587,1.2644,1.2728,1.2756,1.2819,1.2831,1.2797,1.2803,1.2821,1.2819,1.2869,1.2879,1.2862,1.2862,1.2862,0,1.1995,1.2031,1.2112,1.2145,1.2182,1.2234,1.2273,1.2327,1.2366,1.2441,1.247,1.2535,1.2591,1.269,1.2748,1.2813,1.2829,1.2841,1.2839,1.2824,1.2831,1.2829,1.2834,1.2841,1.2841,1.2841,1.2841,0,1.2013,1.2037,1.209,1.2152,1.2197,1.2249,1.2302,1.2327,1.2392,1.2434,1.2498,1.2541,1.2626,1.2691,1.2763,1.2805,1.2835,1.2841,1.285,1.2837,1.2816,1.283,1.2797,1.284,1.284,1.284,1.284,1.284,1.2019,1.2052,1.2115,1.2173,1.2218,1.2267,1.2306,1.2354,1.2407,1.248,1.2509,1.2575,1.2639,1.2738,1.278,1.2833,1.2839,1.2851,1.2855,1.2857,1.2855,1.2806,1.2846,1.2846,1.2847,1.2847,1.2847,0,1.204,1.2082,1.2134,1.2207,1.2254,1.2275,1.2336,1.2374,1.243,1.2487,1.254,1.2615,1.2678,1.2742,1.2809,1.284,1.2856,1.2856,1.2856,1.2865,1.2845,1.2832,1.2843,1.2843,1.2843,1.2843,1.2843,1.2843,1.2056,1.2115,1.2147,1.2229,1.2272,1.2335,1.2368,1.2415,1.246,1.2541,1.2593,1.2633,1.2694,1.2766,1.2827,1.2844,1.2868,1.2865,1.2886,1.2867,1.2866,1.2866,1.2854,1.2869,1.2869,1.2902,1.2902,1.2902]}]]